www.pogodaiklimat.ru

Погода и климат >> Архив погоды >> Россия >> Якутия >> Усть-Чаркы


ПОГОДА в Усть-Чарках

  • Прогноз погоды в Усть-Чарках
  • Монитор погоды в Усть-Чарках

АРХИВ ПОГОДЫ в Усть-Чарках

Время (UTC), дата Ветер
(напр.,м/с)
 
Видим.   Явления Облачность Т
(С)
Тd
(С)
f
(%)
Тe
(С)
Тes
(С)
Комфортность P
(гПа)
Po
(гПа)
Тmin
(С)
Tmax
(С)
R
(мм)
R24
(мм)
S
(см)
06 13.02 В 2 50 км 3/0
[Ci sp]
-37.2 -40.1 74 -46 -46 опасность
обморожения
1023.0 983.4
09 13.02 В 2 50 км 3/0
[Cs]
-37.6 -40.5 74 -46 -46 опасность
обморожения
1023.4 985.0 -37.2
12 13.02 В 2 >70 км 3/0
[Cs]
-39.0 -41.8 75 -48 -48 опасность
обморожения
1023.6 983.5
15 13.02 В 1 50 км ясно -46.2 -42.8 100 -52 -52 опасность
обморожения
1023.4 983.3
18 13.02 ЮВ 1 50 км 3/0
[Ci fib]
-40.4 -43.3 73 -46 -46 опасность
обморожения
1023.0 982.9
21 13.02 В 1 50 км ясно -40.7 -43.3 76 -46 -46 опасность
обморожения
1023.2 982.9 -40.8 16
00 14.02 штиль 0 50 км ясно -46.3 -48.6 77 -46 -46 опасность
обморожения
1023.9 982.8 -46.3
03 14.02 ЮВ 1 50 км ясно -39.5 -42.3 74 -45 -44 опасность
обморожения
1022.0 981.6
06 14.02 ЮВ 2 50 км ясно -35.3 -38.4 73 -44 -44 опасность
обморожения
1019.8 980.6
09 14.02 ЮВ 1 50 км ясно -40.9 -43.8 73 -46 -46 опасность
обморожения
1020.6 980.4 -35.3
12 14.02 штиль 0 50 км ясно -44.8 -47.8 72 -45 -45 опасность
обморожения
1020.9 980.0
15 14.02 штиль 0 50 км ясно -45.4 -47.8 77 -45 -45 опасность
обморожения
1020.1 979.2
18 14.02 штиль 0 50 км ясно -45.5 -47.8 77 -46 -46 опасность
обморожения
1019.2 988.1
21 14.02 штиль 0 50 км ясно -46.6 -49.6 71 -47 -47 опасность
обморожения
1017.4 976.3 -47.5 16
00 15.02 штиль 0 50 км 6/0
[Ci fib]
-41.8 -44.4 76 -42 -42 опасность
обморожения
1015.3 975.4
03 15.02 ЮВ 2 50 км 3/0
[Ci fib]
-36.3 -39.7 71 -45 -44 опасность
обморожения
1011.2 972.1
06 15.02 ЮВ 2 50 км 6/0
[Ci fib]
-33.0 -36.7 69 -41 -41 опасность
обморожения
1009.2 970.8
09 15.02 ЮВ 2 50 км 3/0
[Ac trans]
-34.1 -37.1 74 -42 -42 опасность
обморожения
1008.5 979.6 -32.7
12 15.02 ЮВ 3 50 км ясно -34.6 -37.4 76 -45 -45 опасность
обморожения
1008.0 969.2
15 15.02 В 3 50 км ясно -34.4 -37.4 74 -45 -45 опасность
обморожения
1007.3 968.7
18 15.02 ЮВ 3 50 км ясно -34.6 -37.4 76 -45 -45 опасность
обморожения
1007.4 968.6
21 15.02 В 3 50 км 10/0
[Ci fib]
-37.6 -38.4 92 -49 -49 опасность
обморожения
1006.6 967.3 -45.5 16
00 16.02 В 3 50 км ясно -35.2 -38.0 75 -46 -46 опасность
обморожения
1004.8 966.2
03 16.02 В 2 50 км 10/0
[Ci fib]
-32.6 -36.2 70 -41 -40 опасность
обморожения
1003.3 965.1
06 16.02 В 2 50 км 1/0
[Ci fib]
-29.9 -34.3 65 -37 -37 опасность
обморожения
1002.8 965.1
09 16.02 В 2 50 км ясно -33.3 -36.3 74 -41 -41 опасность
обморожения
1004.2 965.9 -29.4
12 16.02 В 3 50 км ясно -34.4 -37.4 74 -45 -45 опасность
обморожения
1005.4 966.9
15 16.02 В 3 50 км ясно -35.6 -39.4 68 -46 -46 опасность
обморожения
1006.4 967.6
18 16.02 В 3 50 км ясно -35.7 -38.7 74 -46 -46 опасность
обморожения
1007.6 968.7
21 16.02 ЮВ 2 50 км 3/0
[Ci fib]
-37.7 -40.5 75 -46 -46 опасность
обморожения
1009.4 970.1 -38.7 16
00 17.02 ЮВ 3 50 км ясно -38.9 -41.8 74 -50 -50 опасность
обморожения
1011.4 991.8 -39.4
03 17.02 ЮВ 2 50 км 3/0
[Cs]
-35.9 -39.4 70 -44 -43 опасность
обморожения
1011.8 972.7
06 17.02 В 2 50 км 6/0
[Cc]
-33.7 -37.2 71 -42 -42 опасность
обморожения
1012.2 973.5
09 17.02 В 1 50 км 8/0
[Ci fib]
-35.7 -39.4 69 -40 -40 опасность
обморожения
1014.1 974.9 -33.3
12 17.02 В 1 50 км 8/0
[Cs]
-36.3 -39.0 76 -41 -41 опасность
обморожения
1014.9 975.7
15 17.02 штиль 0 50 км 8/0
[Ac trans Cs]
-36.1 -38.4 79 -36 -36 опасность
обморожения
1012.0 998.8
18 17.02 ЮВ 1 50 км 4/0
[Cs]
-38.1 -40.9 75 -43 -43 опасность
обморожения
1015.8 976.2
21 17.02 ЮВ 2 50 км 4/0
[Ci fib]
-37.8 -40.5 76 -47 -47 опасность
обморожения
1016.6 977.1 -38.5 18
00 18.02 ЮВ 2 50 км ясно -38.9 -41.8 74 -48 -48 опасность
обморожения
1017.4 977.6 -39.4
03 18.02 В 2 50 км ясно -35.3 -39.0 69 -44 -43 опасность
обморожения
1017.5 977.4
06 18.02 В 1 50 км ясно -32.7 -37.2 64 -37 -37 опасность
обморожения
1017.5 978.7
09 18.02 В 1 50 км ясно -34.7 -38.4 69 -39 -39 опасность
обморожения
1019.2 980.1 -32.6
12 18.02 штиль 0 50 км ясно -35.8 -39.4 69 -36 -36 опасность
обморожения
1020.8 981.4
15 18.02 В 2 50 км ясно -36.5 -40.1 69 -45 -45 опасность
обморожения
1021.5 981.9
18 18.02 ЮВ 2 50 км ясно -36.7 -40.1 71 -45 -45 опасность
обморожения
1022.2 982.6
21 18.02 В 2 50 км ясно -38.2 -40.9 76 -47 -47 опасность
обморожения
1022.6 982.8 -38.2 16
00 19.02 ЮВ 2 50 км ясно -38.2 -40.9 76 -47 -47 опасность
обморожения
1023.2 983.4
03 19.02 В 1 50 км ясно -34.1 -37.8 69 -39 -37 опасность
обморожения
1022.2 983.1
06 19.02 штиль 0 50 км ясно -30.5 -35.1 64 -31 -30 опасность
обморожения
1021.1 982.5
09 19.02 В 3 50 км ясно -31.5 -34.5 75 -41 -41 опасность
обморожения
1021.4 982.6 -30.0
12 19.02 ЮВ 2 50 км ясно -33.6 -36.6 74 -42 -42 опасность
обморожения
1022.0 982.9
15 19.02 ЮВ 3 50 км ясно -34.1 -37.1 74 -45 -45 опасность
обморожения
1022.4 983.3
18 19.02 В 3 50 км ясно -34.4 -37.4 74 -45 -45 опасность
обморожения
1023.2 984.0
21 19.02 ЮВ 4 50 км ясно -36.3 -39.0 76 -49 -49 опасность
обморожения
1024.1 984.6 -37.2 16
00 20.02 ЮВ 3 50 км ясно -36.5 -39.4 74 -47 -47 опасность
обморожения
1025.1 985.4
03 20.02 В 3 50 км ясно -33.1 -36.7 70 -43 -42 опасность
обморожения
1025.0 986.0

 

Местоположение метеостанции Усть-Чаркы (Якутия, Россия): широта 66.80 долгота 136.60 высота над уровнем моря 274 м.

В архиве по умолчанию представлена погода в Усть-Чарках за последнюю неделю. Архивные данные за месяц целиком и за предыдущие месяцы, начиная с января 2011 года, Вы можете получить, выбрав интересующий диапазон дат из раскрывающегося списка и нажав кнопку "Ввод!".


*Определитесь, кто Вы:
робот инопланетянин человек

Внимание! Время в таблицах - всемирное. Для получения местного времени необходимо прибавить поправку, которая равна 10 ч.

Смотрите также архив погоды в соседних городах и на ближайших метеорологических станциях:

Погода в Батагае (Якутия, Россия) (128 км)
Погода в Верхоянске (Якутия, Россия) (162 км)
Погода в Иэме (Якутия, Россия) (171 км)
Погода в Екюччю (Якутия, Россия) (219 км)
Погода в Батагай-Алыте (Якутия, Россия) (288 км)
Погода в Усть-Моме (Якутия, Россия) (294 км)
Погода в Депутатском (Якутия, Россия) (316 км)
Погода в Томпо (Якутия, Россия) (319 км)
Погода в Себян-Кюеле (Якутия, Россия) (341 км)
Погода в Усть-Куйге (Якутия, Россия) (358 км)

Пояснения к столбцам:

Ветер - указаны скорость ветра в м/с - средняя за 10 мин, порывы в срок и между сроками (в фигурных скобках) и направление, откуда дует ветер: С - северный, СВ - северо-восточный, В - восточный, ЮВ - юго-восточный, Ю - южный, ЮЗ - юго-западный, З - западный, СЗ - северо-западный.
Видимость - горизонтальная дальность видимости в метрах или километрах. При видимости от 1 до 10 км при отсутствии осадков обычно наблюдается дымка, при ухудшении видимости до 1 км и менее - туман. В сухую погоду видимость может ухудшаться дымом, пылью или мглою.
Явления - указаны атмосферные явления, наблюдавшиеся в срок или в последний час перед сроком; фигурными скобками обозначены явления, наблюдавшиеся между сроками (за 1-3 часа до срока); квадратными скобками обозначены град или гололедные отложения с указанием их диаметра в мм.
Облачность - указаны через наклонную черту общая и нижняя облачность в баллах и высота нижней границы облаков в метрах; квадратными скобками обозначены формы облаков: Ci - перистые, Cs - перисто-слоистые, Cc - перисто-кучевые, Ac - высококучевые, As - высокослоистые, Sc - слоисто-кучевые, Ns - слоисто-дождевые, Cu - кучевые, Cb - кучево-дождевые. Подробнее классификацию облаков см. в Атласе облаков (PDF).
T - Температура воздуха - температура, измеренная на высоте 2 м над землей.
Td - Температура точки росы - температура, при понижении до которой содержащийся в воздухе водяной пар достигнет насыщения.
f - Относительная влажность воздуха - влажноcть воздуха, измеренная на высоте 2 м над землей.
Te - Эффективная температура - температура, которую ощущает одетый по сезону человек в тени. Характеристика душности погоды. При расчете учитывается влияние влажности воздуха и скорости ветра на теплоощущения человека.
Tes - Эффективная температура на солнце - температура, которую ощущает человек, с поправкой на солнечный нагрев. Характеристика знойности погоды. Зависит от высоты солнца над горизонтом, облачности и скорости ветра. Ночью, в пасмурную погоду, а также при ветре 12 м/с и более поправка равна нулю.
P - Атмосферное давление - приведенное к уровню моря атмосферное давление.
Po - Атмосферное давление - измеренное на уровне метеостанции атмосферное давление.
Tmin - Минимальная температура - минимум температуры воздуха на высоте 2 м над землей.
Tmax - Максимальная температура - максимум температуры воздуха на высоте 2 м над землей.
R - Количество осадков - Количество выпавших осадков за период времени, мм. При наведении курсора мыши на число - период времени, за который выпало указанное количество осадков.
R24 - Количество осадков - Количество выпавших осадков за 24 часа, мм.
S - Снежный покров - Высота снежного покрова, см. При наведении курсора мыши на число - состояние снежного покрова и степень покрытия местности в баллах.